Location: Jackson Park
(37.2862°N, 79.9123°W)
Time: 00:40:12
(UTC+00:00)

Explorer 7 - Visible Passes

Search period start: 12 May 2026 00:00
Search period end: 22 May 2026 00:00
Orbit: 427 x 536 km, 50.2° (Epoch: 11 May)

Date Brightness Start Highest point End Pass type
(mag) Time Alt. Az. Time Alt. Az. Time Alt. Az.
15 May 6.8 09:28:31 10° SW 09:31:57 57° SE 09:35:31 10° ENE visible
16 May 6.9 09:01:57 19° SSW 09:04:14 51° SE 09:07:45 10° ENE visible
17 May 7.0 08:35:23 32° S 08:36:31 45° SE 08:39:58 10° ENE visible
18 May 7.1 08:08:44 40° SE 08:08:48 40° SE 08:12:10 10° ENE visible
19 May 7.9 07:42:01 30° E 07:42:01 30° E 07:44:21 10° ENE visible
19 May 7.9 09:16:19 10° W 09:19:23 28° NNW 09:22:33 10° NE visible
20 May 8.8 07:15:13 19° E 07:15:13 19° E 07:16:31 10° ENE visible
20 May 7.8 08:49:26 16° W 08:51:36 30° NNW 08:54:48 10° NE visible
21 May 9.4 06:48:23 12° ENE 06:48:23 12° ENE 06:48:39 10° ENE visible
21 May 7.7 08:22:35 25° WNW 08:23:48 32° NNW 08:27:02 10° NE visible
